Montana Department of Transportation

Main Content

Accidents and Incidents Report

Hourly Weather Roundup

ASUS45 KTFX 230719
RWRMT 
MONTANA HOURLY WEATHER ROUNDUP
NATIONAL WEATHER SERVICE GREAT FALLS MT
119 AM MDT WED APR 23 2014

NOTE: "FAIR" INDICATES FEW OR NO CLOUDS BELOW 12000 FEET WITH NO
SIGNIFICANT WEATHER AND/OR OBSTRUCTIONS TO VISIBILITY.

* THESE STATIONS ARE NOT UNDER NWS QUALITY CONTROL. THEY DO NOT
   REPORT WEATHER SUCH AS PRECIPITATION OR FOG.

MTZ001.007-043-230800-
WEST OF THE DIVIDE
CITY           SKY/WX    TMP DP  RH WIND       PRES   REMARKS
KALISPELL      CLOUDY    41  30  65 S10       29.71R 
MISSOULA       CLOUDY    39  30  70 W8        29.78S WCI  33 
BUTTE          LGT SNOW  32  28  85 NW17G24   29.68R WCI  21 
MULLAN PASS    CLOUDY    25  21  85 VRB7      29.73S WCI  17 
* ESSEX        N/A       36  34  92 NW1G6      N/A   
* LINCOLN      N/A       33  31  92 SW4G20     N/A   
* LOOKOUT PASS N/A       34  25  70 SE8        N/A   WCI  27 
* POLSON       N/A       36  30  79 SE2G8      N/A   
* SEELEY LAKE  N/A       36  32  85 NW3        N/A   
* THOMP F APT  CLOUDY    33  33 100 SW3G10     N/A   
* YAAK HILL    N/A       41  31  68 SE2G7      N/A   
--------------------------------

MTZ008-052.055-230800-
SOUTHWEST MONTANA
CITY           SKY/WX    TMP DP  RH WIND       PRES   REMARKS
BOZEMAN        CLOUDY    39  34  82 W14       29.64R WCI  31 
DILLON         LGT SNOW  34  32  92 SW8       29.66R VSB 2 1/2 WCI  27 
W YELLOWSTONE  N/A       32  31  96 SE2        N/A   
* THREE FORKS  CLOUDY    39 -42   2 N/A        N/A   
* BOULDER HILL N/A       35  23  62 E4G27      N/A   
* MONIDA PASS  N/A       31  31 100 W8         N/A   WCI  24 
* RAYNOLDS PAS N/A       32  14  47 SE14G19    N/A   WCI  22 
* WHITEHALL    N/A       40  37  89 W6G14      N/A   WCI  36 
* WISE RIVER   N/A       32  31  96 NW9G14     N/A   WCI  24 
--------------------------------

MTZ009.010-012-014-046-048-049-054-230800-
EAST SLOPES AND CENTRAL MONTANA
CITY           SKY/WX    TMP DP  RH WIND       PRES   REMARKS
CUT BANK       CLOUDY    41  36  82 W20       29.52R 
GREAT FALLS    LGT RAIN  43  43 100 SW6       29.57R 
HELENA         CLOUDY    41  32  70 W17G24    29.64R 
MALMSTROM AFB  RAIN      45  41  86 W7        29.54S VSB 3    
* CONRAD       CLOUDY    43  39  86 N/A        N/A   
* DEARBORN     N/A       43  35  73 S10        N/A   
* EAST GLACIER N/A       36  29  76 W22G30     N/A   WCI  25 
* MONARCH      N/A       34  31  89 W7         N/A   WCI  28 
* PENDROY      N/A       42  31  65 W15G21     N/A   
* ROGERS PASS  N/A       30  28  92 SE12G22    N/A   WCI  20 
* SAINT MARY   N/A       38  29  70 S9G22      N/A   WCI  32 
* SWEET GRASS  N/A       43  38  83 SW16       N/A   
* WHITE SULPH  N/A       38  36  93 NW6G11     N/A   WCI  33 
--------------------------------

MTZ011-013-016-021-035-040-045-047-050-051-230800-
NORTH CENTRAL MONTANA
CITY           SKY/WX    TMP DP  RH WIND       PRES   REMARKS
HAVRE          HVY RAIN  46  45  96 W10       29.48R VSB 3    
LEWISTOWN      RAIN      41  39  93 NW14G21   29.51R 
* CHINOOK      CLOUDY    48  46  93 W18       29.45R 
* FORT BENTON  CLOUDY    45  43  93 SW9G16    29.56R 
* MALTA APT    CLOUDY    57  37  47 E8        29.41R 
* CHESTER      N/A       44  40  86 NW15G21    N/A   
* DENTON       N/A       43  40  89 NW19G26    N/A   
* GEYSER       N/A       40  38  93 W17G24     N/A   WCI  31 
* JUDITH GAP   N/A       40  40 100 N22G29     N/A   WCI  30 
* LOMA         N/A       45  42  89 W12G19     N/A   
--------------------------------

MTZ017.020-022.027-061-062-230800-
NORTHEAST MONTANA
CITY           SKY/WX    TMP DP  RH WIND       PRES   REMARKS
GLASGOW        MOCLDY    55  32  42 E29G36    29.38F 
GLENDIVE       CLOUDY    54  30  40 E18       29.46F 
JORDAN         MOCLDY    57  36  46 E14       29.33F 
SIDNEY         CLOUDY    55  30  39 SE14G25   29.52F 
WOLF POINT     MOCLDY    55  30  39 E16       29.45F 
* BEAVER HILL  N/A       52  31  45 E34G40     N/A   
* CIRCLE       N/A       56  35  45 E15G22     N/A* LINDSAY DVD  N/A       51  32  48 E15        N/A   
* NAVAJO       N/A       52  31  45 E18G27     N/A   
* SACO         N/A       58  32  37 E24G31     N/A   
--------------------------------

MTZ028.042-056.058-230800-
SOUTHCENTRAL AND SOUTHEAST MONTANA
CITY           SKY/WX    TMP DP  RH WIND       PRES   REMARKS
BAKER          CLOUDY    54  34  47 E15       29.45F 
BILLINGS       CLOUDY    54  43  67 NW35G43   29.38R 
LIVINGSTON     CLOUDY    41 N/A N/A W25       29.55S 
MILES CITY     CLOUDY    55  37  51 NE9       29.35F 
* EKALAKA APT  CLOUDY    52  36  55 E14       29.45F 
* LAUREL APT   CLOUDY    55  36  49 NW22G29    N/A   
* ROUNDUP APT  CLOUDY    54  41  62 W14G20     N/A   
* HYSHAM       N/A       64  37  37 SE9G17     N/A   
* LAME DEER    N/A       58  40  51 S9         N/A   
* REED POINT   N/A       47  36  66 W36G47     N/A   
* ROSCOE HILL  N/A       47  35  63 NE4G11     N/A   
--------------------------------

REGIONAL REPORTS...DAKOTAS
CITY           SKY/WX    TMP DP  RH WIND       PRES   REMARKS
WILLISTON      CLOUDY    54  32  43 E23G38    29.56F 
DICKINSON      LGT RAIN  54  34  47 SE22G32   29.55F 
CROSBY         PTCLDY    48  34  59 E22       29.64F 
TIOGA          CLEAR     48  32  54 E23G36    29.66F 
WATFORD CITY   CLEAR     54  32  43 SE21G30   29.57S 
BISMARCK       CLOUDY    52  43  72 SE22G31   29.70F 
GRAND FORKS    PTCLDY    46  27  48 SE14      29.96F 
FARGO          MOCLDY    48  28  46 SE13      29.95S 
BUFFALO SD     CLOUDY    52  36  55 E16       29.40F 
RAPID CITY     CLOUDY    57  45  64 S12       29.53F 
--------------------------------

REGIONAL REPORTS...WYOMING/IDAHO/WASHINGTON
CITY           SKY/WX    TMP DP  RH WIND       PRES   REMARKS
GILLETTE       MOCLDY    52  43  72 S15       29.45F 
SHERIDAN       CLOUDY    61  39  44 SE8       29.36F 
CODY           CLOUDY    52  30  43 W15G29    29.48R 
YELLOWSTONE LA CLOUDY    30  27  89 VRB3      29.71R 
SALMON         CLOUDY    37  25  62 NE9G21    29.81R WCI  30 
MULLAN PASS    CLOUDY    25  21  85 VRB7      29.73S WCI  17 
SAND POINT     PTCLDY    34  34 100 W3        29.78R 
SPOKANE        CLEAR     36  25  64 SW8       29.81R WCI  30 
--------------------------------

REGIONAL REPORTS...ALBERTA
CITY           SKY/WX    TMP DP  RH WIND       PRES   REMARKS
CALGARY        LGT RAIN  43  39  86 NE5       29.40F 
LETHBRIDGE     CLOUDY    46  32  58 W25G35    29.45S 
MEDICINE HAT   LGT RAIN  46  45  96 SW13G20   29.44R 
EDMONTON       CLOUDY    52  36  55 E14       29.38F 
WATERTON GATE  N/A       41  25  53 SW17G32    N/A   
CARDSTON       N/A       43  28  56 W17G26     N/A   
MILK RIVER     N/A       43  37  79 W12        N/A   
--------------------------------

REGIONAL REPORTS...SASKATCHEWAN
CITY           SKY/WX    TMP DP  RH WIND       PRES   REMARKS
SWIFT CURRENT  CLOUDY    54  32  43 SE23G32   29.43F 
REGINA         PTCLDY    48  34  59 E24G37    29.65F 
VAL MARIE      N/A       55  30  39 SE18G28    N/A   
ASSINIBOIA     N/A       50  32  50 SE22G29    N/A   
CORONACH       N/A       52  32  47 E14G20     N/A   

--------------------------------